Flag for Trinidad and Tobago Weather past 2 weeks in Port of Spain, Trinidad and Tobago

Now
86 °F

Partly sunny.


Feels Like: 95 °F
Forecast: 80 / 87 °F
Wind: 10 mph from Southeast

Location: Piarco International Airport - Trinidad

Current Time: Aug 27, 2014 at 1:27:45 PM

Latest Report: Aug 27, 2014 at 12:00 PM


Visibility: N/A

Pressure: 29.92 "Hg

Humidity: 70%

Dew point: 75 °F

Location of Port of SpainLocation

Historic Weather in Port of Spain — Graph

°F

Port of Spain temperature yesterday

Maximum temperature yesterday: 88 °F (at 1:00 PM)
Minimum temperature yesterday: 77 °F (at 5:00 AM)
Average temperature yesterday: 80 °F

Past Weeks' High & Low Weather Summary

 TemperatureHumidityPressure
High95 °F (Aug 20, 1:00 PM)94% (Aug 14, 6:00 PM)30.01 "Hg (Aug 14, 6:00 PM)
Low75 °F (Aug 15, 2:00 AM)44% (Aug 20, 1:00 PM)29.80 "Hg (Aug 18, 4:00 PM)
Average82 °F79%29.90 "Hg
* Reported Aug 12 11:00 AM — Aug 27 11:00 AM, Port of Spain, Weather by CustomWeather, © 2014

Note: Actual official high and low records may vary slightly from our data, if they occured in-between our weather recording intervals... More about our weather records

Advertising

Port of Spain weather history for previous 24 hours

 ConditionsComfort  
Time TempWeatherWind HumidityBarometerVisibility
11:00 AM
Aug 27
88 °FPassing clouds.No wind66%29.95 "HgN/A
10:00 AM82 °FScattered clouds.No wind74%29.95 "HgN/A
9:00 AM79 °FPassing clouds.No wind84%29.95 "HgN/A
8:00 AM75 °FLight rain. Passing clouds.No wind94%29.92 "HgN/A
7:00 AM75 °FLight rain. Passing clouds.No wind94%29.92 "HgN/A
6:00 AM75 °FThunderstorms. Passing clouds.No wind94%29.92 "HgN/A
5:00 AM75 °FSprinkles. Passing clouds.12 mph94%29.89 "Hg4 mi
4:00 AM77 °FSprinkles. Passing clouds.No wind94%29.86 "HgN/A
3:00 AM75 °FSprinkles. Passing clouds.No wind94%29.86 "HgN/A
2:00 AM75 °FPassing clouds.No wind94%29.86 "HgN/A
1:00 AM77 °FPassing clouds.No wind89%29.89 "HgN/A
12:00 AM77 °FPassing clouds.No wind89%29.92 "HgN/A
11:00 PM
Aug 26
77 °FPassing clouds.No wind89%29.92 "HgN/A
10:00 PM77 °FPassing clouds.No wind94%29.92 "HgN/A
9:00 PM77 °FPassing clouds.No wind94%29.92 "HgN/A
8:00 PM77 °FPassing clouds.No wind94%29.89 "HgN/A
7:00 PM79 °FPassing clouds.3 mph89%29.89 "Hg5 mi
6:00 PM77 °FPassing clouds.5 mph89%29.89 "Hg5 mi
5:00 PM81 °FLight rain. Passing clouds.5 mph84%29.86 "Hg6 mi
4:00 PM82 °FPassing clouds.3 mph74%29.86 "HgN/A
3:00 PM84 °FPassing clouds.6 mph74%29.86 "HgN/A
2:00 PM86 °FPassing clouds.12 mph66%29.86 "HgN/A
1:00 PM88 °FScattered clouds.12 mph62%29.89 "HgN/A
Weather by CustomWeather, © 2014

See weather overviewHow to use our weather pages